Woensdrecht, Netherlands

6:32 PM CEST on August 30, 2016 (GMT +0200)
Woensdrecht Air Base

Weather History for EHWO - April, 2013

Change the Weather History Date:

Sunday, April 7, 2013

  Actual Average Record
Temperature  
Mean Temperature 36 °F -  
Max Temperature 50 °F 57 °F 72 °F (2014)
Min Temperature 21 °F 41 °F 21 °F (2013)
Degree Days  
Heating Degree Days 30    
Moisture  
Dew Point 25 °F    
Average Humidity 76    
Maximum Humidity 93    
Minimum Humidity 37    
Precipitation  
Precipitation 0.00 in - - ()
Sea Level Pressure  
Sea Level Pressure 30.17 in    
Wind  
Wind Speed 3 mph ()    
Max Wind Speed 12 mph    
Max Gust Speed -    
Visibility 5.3 miles    
Events      
Averages and records for this station are not official NWS values.
T = Trace of Precipitation, MM = Missing Value Source: Averaged Metar Reports

Daily Weather History Graph

Daily Weather History Graph

Search for Another Location

Airport or City:

Trip Planner

Search our weather history database for the weather conditions in past years. The results will help you decide how hot, cold, wet, or windy it might be!

Date:

Astronomy

Apr. 07, 2013 Rise Set
Actual Time 7:04 AM CEST 8:26 PM CEST
Civil Twilight 6:30 AM CEST 9:00 PM CEST
Nautical Twilight 5:48 AM CEST 9:42 PM CEST
Astronomical Twilight 5:02 AM CEST 10:28 PM CEST
Moon 5:32 AM CEST (4/7) 5:25 PM CEST (4/7)
Length of Visible Light 14h 30m
Length of Day
13h 21m
Waning Crescent, 10% of the Moon is Illuminated
Apr 7
Waning Crescent
Apr 10
New
Apr 18
First Quarter
Apr 25
Full
May 2
Last Quarter

Hourly Weather History & Observations

Time (CEST) Temp. Windchill Dew Point Humidity Pressure Visibility Wind Dir Wind Speed Gust Speed Precip Events Conditions
12:25 AM 32.0 °F 27.5 °F 24.8 °F 75% 30.24 in 6.2 mi NNE 4.6 mph - N/A   Unknown
12:55 AM 30.2 °F - 24.8 °F 80% 30.24 in 6.2 mi ENE 2.3 mph - N/A   Unknown
1:25 AM 28.4 °F - 23.0 °F 80% 30.24 in 6.2 mi East 2.3 mph - N/A   Unknown
1:55 AM 26.6 °F 22.6 °F 23.0 °F 86% 30.24 in 6.2 mi East 3.5 mph - N/A   Unknown
2:25 AM 26.6 °F - 23.0 °F 86% 30.24 in 6.2 mi Calm Calm - N/A   Unknown
2:55 AM 26.6 °F - 23.0 °F 86% 30.24 in 6.2 mi East 2.3 mph - N/A   Unknown
3:25 AM 24.8 °F - 21.2 °F 86% 30.24 in 6.2 mi NE 1.2 mph - N/A   Unknown
3:55 AM 24.8 °F 20.5 °F 23.0 °F 93% 30.24 in 6.2 mi ENE 3.5 mph - N/A   Unknown
4:25 AM 24.8 °F 20.5 °F 21.2 °F 86% 30.21 in 6.2 mi East 3.5 mph - N/A   Unknown
4:55 AM 21.2 °F 14.9 °F 19.4 °F 93% 30.21 in 6.2 mi ENE 4.6 mph - N/A   Unknown
5:25 AM 24.8 °F - 21.2 °F 86% 30.24 in 5.6 mi ENE 2.3 mph - N/A   Mist
5:32 AM 24.8 °F - 23.0 °F 93% 30.24 in 4.3 mi ENE 2.3 mph - N/A   Mist
5:48 AM 23.0 °F - 19.4 °F 86% 30.24 in 5.0 mi NE 2.3 mph - N/A   Mist
5:55 AM 23.0 °F - 21.2 °F 93% 30.24 in 5.6 mi NE 1.2 mph - N/A   Mist
5:59 AM 23.0 °F - 21.2 °F 93% 30.24 in 3.7 mi ENE 1.2 mph - N/A   Mist
6:01 AM 24.8 °F - 23.0 °F 93% 30.24 in 5.0 mi East 1.2 mph - N/A   Mist
6:10 AM 24.8 °F - 23.0 °F 93% 30.21 in 4.3 mi Calm Calm - N/A   Mist
6:16 AM 23.0 °F - 21.2 °F 93% 30.21 in 5.0 mi Calm Calm - N/A   Mist
6:25 AM 23.0 °F - 21.2 °F 93% 30.21 in 4.3 mi Calm Calm - N/A   Mist
6:30 AM 23.0 °F - 19.4 °F 86% 30.21 in - Calm Calm - N/A   Mist
6:31 AM 23.0 °F - 21.2 °F 93% 30.21 in 3.1 mi Calm Calm - N/A   Mist
6:40 AM 24.8 °F - 23.0 °F 93% 30.21 in 5.0 mi Calm Calm - N/A   Mist
6:41 AM 24.8 °F - 23.0 °F 93% 30.21 in 4.3 mi South 1.2 mph - N/A   Partly Cloudy
6:50 AM 23.0 °F - 21.2 °F 93% 30.21 in 5.0 mi South 1.2 mph - N/A   Partly Cloudy
6:55 AM 23.0 °F - 21.2 °F 93% 30.21 in 3.7 mi South 1.2 mph - N/A   Mist
6:59 AM 23.0 °F - 21.2 °F 93% 30.21 in - SSE 1.2 mph - N/A   Mist
7:03 AM 23.0 °F - 21.2 °F 93% 30.24 in 1.8 mi SE 1.2 mph - N/A   Mist
7:07 AM 23.0 °F - 21.2 °F 93% 30.24 in 3.7 mi SSE 1.2 mph - N/A   Mist
7:11 AM 23.0 °F - 21.2 °F 93% 30.24 in 5.0 mi South 1.2 mph - N/A   Mist
7:13 AM 23.0 °F - 21.2 °F 93% 30.24 in 3.1 mi SSE 1.2 mph - N/A   Mist
7:19 AM 23.0 °F - 21.2 °F 93% 30.24 in - SSE 1.2 mph - N/A   Mist
7:25 AM 23.0 °F - 21.2 °F 93% 30.24 in - SSE 1.2 mph - N/A   Mist
7:29 AM 21.2 °F - 19.4 °F 93% 30.24 in - West 2.3 mph - N/A   Mist
7:33 AM 23.0 °F 18.4 °F 21.2 °F 93% 30.24 in 3.1 mi WNW 3.5 mph - N/A   Mist
7:40 AM 24.8 °F - 23.0 °F 93% 30.24 in - NW 1.2 mph - N/A   Mist
7:41 AM 24.8 °F - 23.0 °F 93% 30.24 in 3.1 mi Calm Calm - N/A   Mist
7:51 AM 24.8 °F - 23.0 °F 93% 30.24 in 2.8 mi NE 1.2 mph - N/A   Mist
7:55 AM 24.8 °F - 23.0 °F 93% 30.24 in - East 1.2 mph - N/A   Mist
7:59 AM 24.8 °F - 21.2 °F 86% 30.24 in 4.3 mi ENE 2.3 mph - N/A   Mist
8:10 AM 26.6 °F - 24.8 °F 93% 30.21 in - ENE 2.3 mph - N/A   Mist
8:12 AM 26.6 °F 22.6 °F 24.8 °F 93% 30.21 in 3.1 mi ENE 3.5 mph - N/A   Mist
8:18 AM 26.6 °F 22.6 °F 24.8 °F 93% 30.21 in - ENE 3.5 mph - N/A   Mist
8:25 AM 28.4 °F 23.3 °F 26.6 °F 93% 30.21 in - East 4.6 mph - N/A   Mist
8:34 AM 30.2 °F 24.3 °F 28.4 °F 93% 30.21 in - ENE 5.8 mph - N/A   Mist
8:51 AM 32.0 °F 24.8 °F 30.2 °F 93% 30.21 in - ENE 8.1 mph - N/A   Mist
8:55 AM 32.0 °F 25.6 °F 30.2 °F 93% 30.21 in 2.2 mi ENE 6.9 mph - N/A   Mist
8:59 AM 32.0 °F 25.6 °F 30.2 °F 93% 30.21 in 2.5 mi ENE 6.9 mph - N/A   Mist
9:03 AM 33.8 °F 27.7 °F 30.2 °F 87% 30.21 in 3.1 mi ENE 6.9 mph - N/A   Mist
9:16 AM 33.8 °F 29.6 °F 30.2 °F 87% 30.21 in 3.1 mi ENE 4.6 mph - N/A   Mist
9:25 AM 33.8 °F 29.6 °F 30.2 °F 87% 30.21 in 5.0 mi ENE 4.6 mph - N/A   Mist
9:39 AM 35.6 °F 31.7 °F 32.0 °F 87% 30.21 in 5.6 mi ENE 4.6 mph - N/A   Mist
9:55 AM 37.4 °F 34.9 °F 32.0 °F 81% 30.21 in 6.2 mi East 3.5 mph - N/A   Unknown
10:25 AM 41.0 °F 39.0 °F 32.0 °F 70% 30.21 in 6.2 mi NNE 3.5 mph - N/A   Unknown
10:55 AM 42.8 °F - 30.2 °F 61% 30.21 in 6.2 mi North 2.3 mph - N/A   Unknown
11:25 AM 44.6 °F 43.1 °F 30.2 °F 57% 30.21 in 6.2 mi North 3.5 mph - N/A   Partly Cloudy
11:55 AM 44.6 °F - 32.0 °F 61% 30.21 in 6.2 mi North 2.3 mph - N/A   Scattered Clouds
12:25 PM 46.4 °F 45.2 °F 32.0 °F 57% 30.21 in 6.2 mi North 3.5 mph - N/A   Mostly Cloudy
12:55 PM 48.2 °F - 30.2 °F 50% 30.18 in 6.2 mi NE 4.6 mph - N/A   Mostly Cloudy
1:25 PM 46.4 °F 43.5 °F 26.6 °F 46% 30.15 in 6.2 mi NNW 5.8 mph - N/A   Mostly Cloudy
1:55 PM 46.4 °F 43.5 °F 26.6 °F 46% 30.15 in 6.2 mi NNE 5.8 mph - N/A   Partly Cloudy
2:25 PM 48.2 °F - 26.6 °F 43% 30.12 in 6.2 mi NNW 4.6 mph - N/A   Partly Cloudy
2:55 PM 48.2 °F - 26.6 °F 43% 30.12 in 6.2 mi NNW 4.6 mph - N/A   Scattered Clouds
3:25 PM 50.0 °F - 26.6 °F 40% 30.12 in 6.2 mi East 4.6 mph - N/A   Mostly Cloudy
3:55 PM 50.0 °F - 26.6 °F 40% 30.09 in 6.2 mi North 6.9 mph - N/A   Mostly Cloudy
4:25 PM 50.0 °F - 26.6 °F 40% 30.06 in 6.2 mi WSW 11.5 mph - N/A   Mostly Cloudy
4:55 PM 50.0 °F - 24.8 °F 37% 30.06 in 6.2 mi ENE 5.8 mph - N/A   Unknown
5:25 PM 50.0 °F - 26.6 °F 40% 30.06 in 6.2 mi North 9.2 mph - N/A   Partly Cloudy
5:55 PM 50.0 °F - 24.8 °F 37% 30.04 in 6.2 mi NNE 10.4 mph - N/A   Unknown
6:25 PM 50.0 °F - 24.8 °F 37% 30.04 in 6.2 mi NNE 9.2 mph - N/A   Unknown
6:55 PM 48.2 °F - 23.0 °F 37% 30.04 in 6.2 mi NE 10.4 mph - N/A   Partly Cloudy
7:25 PM 46.4 °F 42.4 °F 23.0 °F 40% 30.04 in 6.2 mi NNE 8.1 mph - N/A   Unknown
7:55 PM 44.6 °F 40.7 °F 26.6 °F 49% 30.01 in 6.2 mi North 6.9 mph - N/A   Partly Cloudy
8:25 PM 42.8 °F 38.6 °F 26.6 °F 53% 30.01 in 6.2 mi NNE 6.9 mph - N/A   Partly Cloudy
8:55 PM 37.4 °F 32.8 °F 24.8 °F 60% 30.01 in 6.2 mi NE 5.8 mph - N/A   Unknown
9:25 PM 41.0 °F 35.2 °F 26.6 °F 57% 30.01 in 6.2 mi NE 9.2 mph - N/A   Overcast
9:55 PM 41.0 °F 34.7 °F 24.8 °F 53% 30.01 in 6.2 mi NE 10.4 mph - N/A   Unknown
10:25 PM 39.2 °F 32.0 °F 24.8 °F 56% 29.98 in 6.2 mi ENE 11.5 mph - N/A   Unknown
10:55 PM 39.2 °F 32.0 °F 24.8 °F 56% 29.98 in 6.2 mi ENE 11.5 mph - N/A   Overcast
11:25 PM 39.2 °F 32.5 °F 24.8 °F 56% 29.98 in 6.2 mi ENE 10.4 mph - N/A   Mostly Cloudy
11:55 PM 39.2 °F 32.0 °F 26.6 °F 61% 29.95 in 6.2 mi ENE 11.5 mph - N/A   Overcast